Regional Weather Roundup
Issued by NWS Grand Forks, ND

Home | Current Version | Previous Version | Graphics & Text | Print | Product List | Glossary On
Versions: 1 2 3 4 5 6 7 8 9 10 11 12 13 14 15 16 17 18 19 20 21 22 23 24 25 26 27 28 29 30 31 32 33 34 35 36 37 38 39 40 41 42 43 44 45 46 47 48 49 50
000
ASUS43 KFGF 171331
RWRFGF
PRAIRIE TO PINES  WEATHER ROUNDUP
NATIONAL WEATHER SERVICE EASTERN NORTH DAKOTA/GRAND FORKS ND
700 AM CST WED DEC 17 2014

 **SATELLITE DATA USED TO AUGMENT SKY COVER AT AUTOMATED STATIONS**
 *****  WEATHER ACROSS EASTERN NORTH DAKOTA  *****

CITY           SKY/WX    TMP DP  RH WIND       PRES   REMARKS
GRAND FORKS    PTCLDY     1  -2  87 N3        30.37S
GRAND FRKS AFB PTCLDY     1  -1  94 NW3       30.37S
DEVILS LAKE    MOCLDY     0 -11  60 CALM      30.30R
FARGO          CLEAR      4  -1  80 N6        30.37S WCI  -7
WAHPETON ARPT  MOSUNNY    3   0  85 W5        30.37R WCI  -6
$$

 ***** WEATHER ACROSS CENTRAL AND WESTERN NORTH DAKOTA  *****

CITY           SKY/WX    TMP DP  RH WIND       PRES   REMARKS
BISMARCK       CLOUDY    14  10  84 SE8       30.29R WCI   3
MINOT          CLOUDY     7   3  84 VRB5      30.26S WCI  -2
JAMESTOWN      PTCLDY     0  -4  83 W7        30.32R WCI -13
MINOT AFB      CLOUDY     9   8  98 SE6       30.27R WCI  -1
GARRISON         N/A     15  12  88 S9        30.23S WCI   3
WILLISTON      CLOUDY    19  13  77 SE8       30.17S WCI   9
DICKINSON      CLOUDY    16  11  80 SE14      30.12S WCI   2
HETTINGER      CLOUDY    15  12  88 SE14      30.13S WCI   0
$$

 *****  OTHER AIRPORT OBSERVATIONS IN OUR AREA  *****

CITY           SKY/WX    TMP DP  RH WIND       PRES   REMARKS
WALHALLA         N/A     -2  -4  92 CALM      30.37F
GRAFTON AIRPOR NOT AVBL
VALLEY CITY AR FAIR       1   1 100 N3        30.33S
CANDO          CLOUDY    -4  -8  84 CALM      30.32S FOG
CAVALIER APRT  FAIR       0  -2  92 CALM      30.37F
GWINNER        SUNNY      5   1  85 MISG      30.36S
ROLLA          FOG       -4  -8  84 CALM      30.28F VSB 1/2
 ***** THE ABOVE OBSERVATIONS ARE NON NWS ARE NOT QUALITY
       CONTROLLED AND MAY MIS-REPORT RAIN FOR SNOW...
$$

  *****  WEATHER ACROSS NORTHERN MINNESOTA  *****

CITY           SKY/WX    TMP DP  RH WIND       PRES   REMARKS
FLAG ISLAND    MOCLDY     7   3  85 N6        30.33S WCI  -3
WARROAD        MOCLDY     5   1  85 NW3       30.34S
ROSEAU         MOCLDY     3   0  85 CALM      30.34F
HALLOCK        PTCLDY     0  -6  78 N5        30.37F WCI -10
THF RVR FALLS  PTCLDY     3   0  85 N3        30.33S
BAUDETTE       CLOUDY    12   7  80 N8        30.31S WCI   0
WASKISH        CLOUDY    12   9  85 CALM      30.30S
CROOKSTON      PTCLDY     1  -2  85 CALM      30.37S
$$
  *****  WEATHER ACROSS CENTRAL AND WEST MINNESOTA  *****

CITY           SKY/WX    TMP DP  RH WIND       PRES   REMARKS
FOSSTON        PTCLDY     0  -6  78 CALM      30.32S
BEMIDJI        LGT SNOW   7   4  89 NW6       30.28S WCI  -3
PARK RAPIDS    PTCLDY     3   0  87 NW7       30.26S WCI  -9
ELBOW LAKE     FAIR       0  -3  88 W6        30.33R WCI -11
WADENA         PTCLDY     3   1  92 NW5       30.27S WCI  -6
DETROIT LAKES  FAIR       3   1  92 N5        30.30S WCI  -6
MOORHEAD       FAIR       3   1  92 N3        30.37S
FERGUS FALLS   PTCLDY     1  -4  78 NW5       30.37S WCI  -8
MORRIS MN      PTCLDY     5   1  85 NW8       30.33S WCI  -8
STAPLES        PTCLDY     7   3  85 NW5       30.27S WCI  -2
$$
  *****  WEATHER ELSEWHERE ACROSS MINNESOTA  *****

CITY           SKY/WX    TMP DP  RH WIND       PRES   REMARKS
DULUTH         PTCLDY    12   6  77 N10       30.19R WCI  -1
INTRNTL FALLS  CLOUDY    13   8  81 N9        30.29R WCI   1
ELY            LGT SNOW   9   7  92 N5        30.21R WCI   0
CLOQUET        FLURRIES  10   7  85 NW6       30.22R WCI   1
WHEATON        PTCLDY     1  -2  85 W5        30.38S WCI  -8
BRAINERD       CLEAR     10   6  84 NW6       30.26S WCI   0
HIBBING        LGT SNOW  12   6  77 N10       30.23R WCI  -1
ALEXANDRIA     PTCLDY     5   2  87 W6        30.29S WCI  -6
SAINT CLOUD    PTCLDY     9   4  80 NW5       30.30R WCI   1
MINNEAPOLIS    PTCLDY     9   5  84 W7        30.31S WCI  -2
$$

  *****  WEATHER ACROSS SOUTH DAKOTA  *****

CITY           SKY/WX    TMP DP  RH WIND       PRES   REMARKS
SIOUX FALLS    PTCLDY     2  -3  80 N7        30.31S WCI -11
BROOKINGS      NOT AVBL
WATERTOWN      PTCLDY     0  -2  91 CALM      30.29R
HURON          CLOUDY     0  -3  87 W3        30.34R
SISSETON         N/A      1  -3  83 NW7       30.35R WCI -12
ABERDEEN       CLEAR      4   0  83 N5        30.33F WCI  -5
MITCHELL       MOCLDY     3   0  87 SW3       30.35R
PIERRE         CLOUDY    16  13  88 SE12      30.25S WCI   3
MOBRIDGE       CLOUDY    16  11  80 SE9       30.24S WCI   4
RAPID CITY     CLOUDY    19  17  92 SE7       30.05S WCI  10
$$

  *****  SOME WEATHER IN NEARBY STATES *****

CITY           SKY/WX    TMP DP  RH WIND       PRES   REMARKS
GLASGOW MT     CLOUDY    18  15  88 E14       30.07S WCI   4
GREAT FALLS MT CLOUDY    23  21  92 E3        29.90S
CHEYENNE WY    CLOUDY    32  22  66 W8        29.94S WCI  25
SCOTTSBLUFF NE CLOUDY    17  15  92 S3        30.01R
OMAHA NE       MOCLDY    18  13  80 N6        30.36F WCI  10
DES MOINES IA  PTCLDY    15   9  76 NW7       30.35R WCI   5
DAVENPORT IA   CLOUDY    22  15  75 NW13      30.29S WCI  10
CHICAGO IL     CLOUDY    25  18  74 W14       30.21R WCI  13
EAU CLAIRE WI  CLOUDY    18  12  77 W8        30.24R WCI   8
LA CROSSE WI   CLOUDY    22  14  71 W13       30.26S WCI  10
$$

  *****  SOME NATIONAL WEATHER *****

CITY           SKY/WX    TMP DP  RH WIND       PRES   REMARKS
LA GUARDIA NY  PTCLDY    45  41  86 W10       29.83R
RALEIGH NC     PTCLDY    41  35  79 SW3       30.09R
ATLANTA GA     PTCLDY    38  35  89 NW7       30.18R
NEW ORLEANS LA MOCLDY    46  38  73 E3        30.27S
OKLAHOMA CITY  CLOUDY    38  30  73 SE7       30.25R
ALBUQUERQUE NM LGT RAIN  33  31  92 E6        30.04F
SALT LAKE CITY PTCLDY    30  27  88 CALM      29.98R
LOS ANGELES CA LGT RAIN  53  50  89 E3        29.95S
BOISE ID       CLEAR     28  26  92 CALM      29.96S
SEATTLE WA     LGT RAIN  44  37  76 E10       29.81F
$$

*** WEATHER ACROSS MANITOBA...SASKATCHEWAN AND ONTARIO ***
                ***ONTARIO***

CITY           SKY/WX    TMP DP  RH WIND       PRES   REMARKS
GERALDTON      PTCLDY     0  -4  85 N8        30.21R WCI -15
THUNDER BAY    FLURRIES  16  10  79 NW8       30.22  WCI   5
SIOUX LOOKOUT  CRYSTALS  -2  -6  84 N3        30.31
TORONTO        LGT RAIN  37  34  87 W23       29.81
BIG TROUT LK   CLEAR    -15 -20  76 SW3       30.35S
PICKLE LAKE    FLURRIES  -4  -9  77 VRB2      30.32
DRYDEN         CLEAR      5   3  92 NE6       30.30R WCI  -6
KENORA         MOCLDY     3   0  85 N7        30.31S WCI  -9
$$
                *** MANITOBA***

CITY           SKY/WX    TMP DP  RH WIND       PRES   REMARKS
BRANDON        FOG       -6 -11  77 NE3       30.33S VSB 1/2
DAUPHIN        CLEAR     -6  -9  84 W7        30.33S WCI -20
ISLAND LAKE    FLURRIES   5   1  85 S3        30.35S
PILOT MOUND      N/A     -9 -13  84 CALM        N/A
THE PAS        CLOUDY    18  12  79 S8        30.23  WCI   7
THOMPSON       FLURRIES  16  14  93 SW12      30.21S WCI   3
WINNIPEG       CLEAR     -4  -8  84 CALM      30.40S
LYNN LAKE      LGT SNOW  12  12 100 SW9       30.10F WCI   0
CHURCHILL      CLEAR      3   0  85 SW8       30.12S WCI -10
GILLAM         FLURRIES  14  10  85 W13       30.20S WCI   0
$$
                ***SASKATCHEWAN***

CITY           SKY/WX    TMP DP  RH WIND       PRES   REMARKS
ESTEVAN        FLURRIES N/A N/A N/A SE12        N/A
KINDERSLEY     CLOUDY    18  16  93 SE15      29.97F WCI   3
LLOYDMINSTER   CLOUDY    18  16  93 SE9G21    29.96S WCI   6
PRINCE ALBERT  FLURRIES  19  16  86 S8        30.13  WCI   9
REGINA         CLOUDY    18  14  86 S17       30.14F WCI   2
YORKTON        FLURRIES  16  12  86 S10       30.21S WCI   3
N. BATTLEFORD  CLOUDY    18  16  93 SE14      30.06S WCI   4
LA RONGE       CLOUDY    16  14  93 S9        30.11F WCI   4
SASKATOON      CLOUDY    19  18  93 S12G18    30.10F WCI   7
SWIFT CURRENT  CLOUDY    16  14  93 S15G21    29.97R WCI   1
$$
NOTE: THESE ARE AUTOMATED STATIONS WITH LIMITED QUALITY CONTROL
      "FAIR" INDICATES FEW OR NO CLOUDS BELOW 12,000 FEET WITH NO
      SIGNIFICANT WEATHER AND/OR OBSTRUCTIONS TO VISIBILITY.
      SKY/WX - SKY CONDITION AND SIGNIFICANT WEATHER.
      TMP - AIR TEMPERATURE.    DP   - DEWPOINT TEMPERATURE.
      RH  - RELATIVE HUMIDITY.  PRES - PRESSURE.
      HX  - HEAT INDEX.         WCI  - WIND CHILL INDEX.
$



USA.gov is the U.S. government's official web portal to all federal, state and local government web resources and services.